STARLINK-32441, 61668

Orbit data source: Space-Track

STARLINK-32441, 61668 is a payload satellite owned by SpaceX/Seattle (US) in LEO that was launched on Sat, 26 Oct 2024 UTC via an FALCON 9 launch vehicle from the Air Force Eastern Test Range (AFETR). Payload-class satellites include a variety of spacecraft equipped with specific instruments for various scientific and technological missions. These include communications satellites like Starlink; space stations such as the ISS; scientific satellites like the Hubble; Earth observation satellites from companies like Planet Labs, Umbra, and HawkEye 360; GPS; miniature CubeSats for education and research; and military/defense satellites.

Loading next visibility...
Identifier
61668, 2024-193H
Orbit
LEO
Country
Flag of USUS
Related business
Manufacturer
SpaceX/Seattle
Mission
Operational Commercial Communications
Bus & Motor
STARLINK V2M, Unknown motor
Mass
730 kg wet, ~700 kg dry
Launch date (UTC)
2024-10-26 (1 year ago)
Launch vehicle
FALCON 9
Launch site
Air Force Eastern Test Range (AFETR)
Object type
Payload
Rocket body
Debris
Shape & HBR
Box + 2 Pan, 17.7 m
Radar Cross Section
33.884 m², Large (>1 m²)

Expand to show TLE details & history
Last TLE update: 21 hours ago

TLE from 21 hours ago
0 STARLINK-32441
1 61668U 24193H   25297.56430998  .00000861  00000-0  41214-4 0  9996
2 61668  53.1599   3.4099 0001191 110.1175 249.9954 15.30192514 55681
Epoch: 2025-10-24T13:32Z
TLE epoch observation values (Epoch: 2025-10-24T13:32:36.382Z)
Latitude
-0.00001°
Longitude
127.0509°
Altitude
476.416 km
Speed
7.629 km/s
True Right ascension
00h 13m 38s
True Declination
0° 00' 00"
Sunlit
Object was in full shadow at epoch
Visualization orbit readout
Latitude
Unknown
Longitude
Unknown
Altitude
Unknown
Speed
Unknown
Apparent Right ascension
Unknown
Apparent Declination
Unknown
Sunlit
N/A
Visualization observer readout
Local Sidereal Time
05:37:47
Azimuth
Unknown
Elevation
Unknown
Doppler factor
Unknown
Orbital elements
Apogee altitude
476.31 km
Perigee altitude
474.678 km
Semi-major axis
6,853.631 km
Eccentricity
0.00012
Inclination
53.1599°
RAAN
3.4099°
Arg. of periapsis
110.1175°
True anomaly
249.98258°
Mean anomaly
249.9954°
Eccentric anomaly
249.98899°
Mean motion
3.82527 °/min
Orbital period
94.11 mins
BSTAR
0.000041214
Loading maneuver chart data...
Computing Atmospheric mass density...
Loading historical data...
Loading historical data...
Loading historical data...
Loading historical data...
Loading historical data...
Loading historical data...
Loading historical data...

Documentation

Showing up to 5 results
|